TimePDT,TemperatureF,Dew PointF,Humidity,Sea Level PressureIn,VisibilityMPH,Wind Direction,Wind SpeedMPH,Gust SpeedMPH,PrecipitationIn,Events,Conditions,WindDirDegrees,DateUTC
12:56 AM,53.1,41.0,64,30.02,10.0,WSW,18.4,-,N/A,,Clear,250,2013-05-08 07:56:00
1:56 AM,52.0,41.0,66,30.01,10.0,WSW,15.0,-,N/A,,Clear,240,2013-05-08 08:56:00
2:56 AM,51.1,41.0,68,30.01,10.0,SW,12.7,21.9,N/A,,Clear,230,2013-05-08 09:56:00
3:56 AM,51.1,41.0,68,30.02,10.0,WSW,13.8,-,N/A,,Clear,240,2013-05-08 10:56:00
4:56 AM,51.1,41.0,68,30.02,10.0,SW,12.7,-,N/A,,Clear,230,2013-05-08 11:56:00
5:56 AM,51.1,42.1,71,30.04,10.0,SW,13.8,-,N/A,,Clear,230,2013-05-08 12:56:00
6:56 AM,53.1,44.1,71,30.05,10.0,SW,11.5,-,N/A,,Clear,230,2013-05-08 13:56:00
7:56 AM,57.0,43.0,59,30.06,10.0,WSW,16.1,-,N/A,,Clear,250,2013-05-08 14:56:00
8:56 AM,61.0,44.1,54,30.06,10.0,WSW,12.7,-,N/A,,Clear,240,2013-05-08 15:56:00
9:56 AM,64.0,41.0,43,30.06,10.0,Variable,5.8,-,N/A,,Partly Cloudy,0,2013-05-08 16:56:00
10:56 AM,66.9,39.9,37,30.04,10.0,Variable,3.5,-,N/A,,Scattered Clouds,0,2013-05-08 17:56:00
11:56 AM,70.0,39.0,32,30.03,10.0,West,6.9,17.3,N/A,,Mostly Cloudy,270,2013-05-08 18:56:00
12:56 PM,72.0,39.0,30,30.01,10.0,Variable,5.8,-,N/A,,Partly Cloudy,0,2013-05-08 19:56:00
1:56 PM,72.0,39.9,31,30.01,10.0,WSW,13.8,19.6,N/A,,Mostly Cloudy,240,2013-05-08 20:56:00
2:56 PM,72.0,42.1,34,30.00,10.0,WSW,19.6,28.8,N/A,,Mostly Cloudy,250,2013-05-08 21:56:00
3:56 PM,71.1,42.1,35,29.99,10.0,WSW,20.7,27.6,N/A,,Clear,250,2013-05-08 22:56:00
4:56 PM,70.0,43.0,38,30.00,10.0,WSW,24.2,29.9,N/A,,Clear,250,2013-05-08 23:56:00
5:56 PM,66.9,44.1,44,30.01,10.0,SW,18.4,27.6,N/A,,Clear,230,2013-05-09 00:56:00
6:56 PM,64.0,43.0,46,30.01,10.0,WSW,20.7,26.5,N/A,,Clear,240,2013-05-09 01:56:00
7:56 PM,61.0,42.1,50,30.02,10.0,WSW,17.3,-,N/A,,Clear,240,2013-05-09 02:56:00
8:56 PM,57.9,42.1,56,30.03,10.0,WSW,15.0,-,N/A,,Clear,240,2013-05-09 03:56:00
9:56 PM,57.9,42.1,56,30.04,10.0,SW,10.4,-,N/A,,Clear,230,2013-05-09 04:56:00
10:56 PM,57.0,42.1,57,30.05,10.0,WSW,11.5,-,N/A,,Clear,240,2013-05-09 05:56:00
11:56 PM,57.0,43.0,59,30.05,10.0,WSW,11.5,-,N/A,,Clear,240,2013-05-09 06:56:00